| time (UTC) | temp C | wind direction | speed KPH | gust KPH | rain 1hr cm | rain 24hr cm | rain mn cm | humidity % | barometer mb |
| 20260507164638 | 17 | 300 | 0.0 | 6.4 | 0.00 | 0.00 | 0.00 | 53 | 1011.8 |
| 20260507163102 | 17 | 281 | 1.6 | 9.7 | 0.00 | 0.00 | 0.00 | 52 | 1011.9 |
| 20260507161527 | 17 | 234 | 3.2 | 9.7 | 0.00 | 0.00 | 0.00 | 51 | 1011.9 |
| 20260507160114 | 17 | 356 | 1.6 | 17.7 | 0.00 | 0.00 | 0.00 | 51 | 1011.9 |
| 20260507154556 | 17 | 221 | 4.8 | 14.5 | 0.00 | 0.00 | 0.00 | 50 | 1011.9 |
| 20260507153044 | 18 | 254 | 8.0 | 19.3 | 0.00 | 0.00 | 0.00 | 49 | 1011.8 |
| 20260507151507 | 18 | 245 | 4.8 | 12.9 | 0.00 | 0.00 | 0.00 | 49 | 1011.7 |
| 20260507150038 | 19 | 287 | 4.8 | 14.5 | 0.00 | 0.00 | 0.00 | 48 | 1011.6 |
| 20260507144508 | 19 | 257 | 4.8 | 16.1 | 0.00 | 0.00 | 0.00 | 50 | 1011.4 |
| 20260507143036 | 19 | 267 | 4.8 | 16.1 | 0.00 | 0.00 | 0.00 | 51 | 1011.4 |
| 20260507141512 | 19 | 9 | 3.2 | 12.9 | 0.00 | 0.00 | 0.00 | 52 | 1011.4 |
| 20260507140041 | 18 | 290 | 3.2 | 12.9 | 0.00 | 0.00 | 0.00 | 52 | 1011.5 |
| 20260507134600 | 18 | 301 | 3.2 | 11.3 | 0.00 | 0.00 | 0.00 | 54 | 1011.5 |
| 20260507133056 | 18 | 276 | 1.6 | 16.1 | 0.00 | 0.00 | 0.00 | 54 | 1011.6 |
| 20260507131530 | 18 | 311 | 4.8 | 16.1 | 0.00 | 0.00 | 0.00 | 53 | 1011.6 |
| 20260507130107 | 18 | 257 | 1.6 | 12.9 | 0.00 | 0.00 | 0.00 | 51 | 1011.6 |
| 20260507124503 | 19 | 200 | 4.8 | 14.5 | 0.00 | 0.00 | 0.00 | 51 | 1011.5 |
| 20260507123026 | 18 | 236 | 1.6 | 12.9 | 0.00 | 0.00 | 0.00 | 50 | 1011.5 |
| 20260507121541 | 18 | 248 | 4.8 | 12.9 | 0.00 | 0.00 | 0.00 | 50 | 1011.5 |
| 20260507120050 | 19 | 199 | 3.2 | 14.5 | 0.00 | 0.00 | 0.00 | 50 | 1011.6 |
| 20260507114512 | 19 | 245 | 4.8 | 12.9 | 0.00 | 0.00 | 0.00 | 49 | 1011.5 |
| 20260507113019 | 19 | 301 | 4.8 | 16.1 | 0.00 | 0.00 | 0.00 | 49 | 1011.6 |
| 20260507111548 | 18 | 287 | 6.4 | 16.1 | 0.00 | 0.00 | 0.00 | 51 | 1011.5 |
| 20260507110021 | 18 | 235 | 8.0 | 14.5 | 0.00 | 0.00 | 0.00 | 53 | 1011.5 |
| 20260507104533 | 18 | 231 | 1.6 | 6.4 | 0.00 | 0.00 | 0.00 | 53 | 1011.7 |
| 20260507103035 | 18 | 207 | 8.0 | 19.3 | 0.00 | 0.00 | 0.00 | 52 | 1011.7 |
| 20260507101526 | 18 | 141 | 6.4 | 20.9 | 0.00 | 0.00 | 0.00 | 54 | 1011.7 |
| 20260507100035 | 18 | 274 | 3.2 | 17.7 | 0.00 | 0.00 | 0.00 | 53 | 1011.6 |
| 20260507094539 | 18 | 286 | 4.8 | 14.5 | 0.00 | 0.00 | 0.00 | 54 | 1011.4 |
| 20260507093034 | 18 | 281 | 1.6 | 8.0 | 0.00 | 0.00 | 0.00 | 57 | 1011.4 |
| 20260507091548 | 17 | 49 | 0.0 | 12.9 | 0.00 | 0.00 | 0.00 | 61 | 1011.4 |
| 20260507090040 | 16 | 293 | 1.6 | 11.3 | 0.00 | 0.00 | 0.00 | 62 | 1011.5 |
| 20260507084600 | 16 | 284 | 1.6 | 12.9 | 0.00 | 0.00 | 0.00 | 62 | 1011.5 |
| 20260507083027 | 16 | 235 | 1.6 | 9.7 | 0.00 | 0.00 | 0.00 | 64 | 1011.3 |
| 20260507081543 | 15 | 306 | 4.8 | 9.7 | 0.00 | 0.00 | 0.00 | 66 | 1011.2 |
| 20260507080004 | 14 | 174 | 3.2 | 19.3 | 0.00 | 0.00 | 0.00 | 67 | 1011.1 |
| 20260507074533 | 14 | 240 | 4.8 | 11.3 | 0.00 | 0.00 | 0.00 | 69 | 1011.0 |
| 20260507073059 | 15 | 255 | 3.2 | 12.9 | 0.00 | 0.00 | 0.00 | 69 | 1011.0 |
| 20260507071515 | 14 | 227 | 4.8 | 12.9 | 0.00 | 0.00 | 0.00 | 72 | 1010.9 |
| 20260507070020 | 13 | 178 | 4.8 | 22.5 | 0.00 | 0.00 | 0.00 | 73 | 1010.9 |
| 20260507064523 | 13 | 258 | 1.6 | 9.7 | 0.00 | 0.00 | 0.00 | 76 | 1010.9 |
| 20260507063039 | 12 | 200 | 6.4 | 16.1 | 0.00 | 0.00 | 0.00 | 77 | 1010.8 |
| 20260507061548 | 12 | 283 | 3.2 | 11.3 | 0.00 | 0.00 | 0.00 | 78 | 1010.7 |
| 20260507060006 | 12 | 245 | 3.2 | 11.3 | 0.00 | 0.00 | 0.00 | 79 | 1010.3 |
| 20260507054503 | 12 | 278 | 1.6 | 11.3 | 0.00 | 0.00 | 0.00 | 80 | 1010.3 |
| 20260507053033 | 12 | 225 | 3.2 | 16.1 | 0.00 | 0.00 | 0.00 | 81 | 1010.3 |
| 20260507051544 | 12 | 236 | 3.2 | 11.3 | 0.00 | 0.00 | 0.00 | 81 | 1010.2 |
| 20260507050110 | 12 | 253 | 1.6 | 9.7 | 0.00 | 0.00 | 0.00 | 82 | 1010.0 |
| 20260507044602 | 12 | 285 | 1.6 | 12.9 | 0.00 | 0.00 | 0.00 | 83 | 1009.7 |
| 20260507043016 | 12 | 225 | 1.6 | 6.4 | 0.00 | 0.00 | 0.00 | 83 | 1009.3 |
| 20260507041521 | 12 | 228 | 0.0 | 4.8 | 0.00 | 0.00 | 0.00 | 85 | 1009.4 |
| 20260507040045 | 11 | 206 | 0.0 | 3.2 | 0.00 | 0.00 | 0.00 | 86 | 1009.2 |
| 20260507034605 | 11 | 174 | 0.0 | 1.6 | 0.00 | 0.00 | 0.00 | 87 | 1009.0 |
| 20260507033024 | 11 | 136 | 0.0 | 1.6 | 0.00 | 0.00 | 0.00 | 87 | 1009.0 |
| 20260507031516 | 12 | 257 | 0.0 | 3.2 | 0.00 | 0.00 | 0.00 | 86 | 1008.8 |
| 20260507030045 | 11 | 248 | 0.0 | 3.2 | 0.00 | 0.00 | 0.00 | 87 | 1008.5 |
| 20260507024550 | 12 | 264 | 0.0 | 1.6 | 0.00 | 0.00 | 0.00 | 87 | 1008.4 |
| 20260507023008 | 12 | 250 | 0.0 | 1.6 | 0.00 | 0.00 | 0.00 | 86 | 1008.4 |
| 20260507021545 | 12 | 245 | 0.0 | 6.4 | 0.00 | 0.00 | 0.00 | 86 | 1008.2 |
| 20260507020048 | 12 | 242 | 0.0 | 6.4 | 0.00 | 0.00 | 0.00 | 87 | 1008.3 |
| 20260507014559 | 12 | 280 | 1.6 | 6.4 | 0.00 | 0.00 | 0.00 | 87 | 1008.1 |
| 20260507013000 | 12 | 282 | 1.6 | 8.0 | 0.00 | 0.00 | 0.00 | 87 | 1007.8 |
| 20260507011535 | 12 | 262 | 1.6 | 4.8 | 0.00 | 0.00 | 0.00 | 86 | 1007.9 |
| 20260507010047 | 12 | 262 | 0.0 | 4.8 | 0.00 | 0.00 | 0.00 | 85 | 1007.5 |
| 20260507004600 | 12 | 273 | 1.6 | 8.0 | 0.00 | 0.00 | 0.00 | 85 | 1007.6 |
| 20260507003001 | 12 | 238 | 0.0 | 4.8 | 0.00 | 0.00 | 0.00 | 83 | 1007.6 |
| 20260507001517 | 12 | 286 | 0.0 | 6.4 | 0.00 | 0.00 | 0.00 | 83 | 1007.1 |
| 20260507000033 | 12 | 259 | 0.0 | 6.4 | 0.00 | 0.00 | 0.00 | 83 | 1007.4 |
| 20260506234619 | 12 | 281 | 1.6 | 6.4 | 0.00 | 0.00 | 0.00 | 82 | 1007.4 |
| 20260506233048 | 13 | 269 | 0.0 | 6.4 | 0.00 | 0.00 | 0.00 | 82 | 1007.0 |
| 20260506231524 | 13 | 229 | 1.6 | 8.0 | 0.00 | 0.00 | 0.00 | 80 | 1007.0 |
| 20260506230018 | 13 | 240 | 0.0 | 8.0 | 0.00 | 0.00 | 0.00 | 80 | 1006.8 |
| 20260506224535 | 13 | 267 | 0.0 | 4.8 | 0.00 | 0.00 | 0.00 | 80 | 1006.3 |
| 20260506223056 | 13 | 333 | 1.6 | 9.7 | 0.00 | 0.00 | 0.00 | 79 | 1005.8 |
| 20260506221506 | 14 | 290 | 1.6 | 8.0 | 0.00 | 0.00 | 0.00 | 79 | 1005.4 |
| 20260506220035 | 14 | 255 | 1.6 | 12.9 | 0.00 | 0.00 | 0.00 | 78 | 1005.6 |
| 20260506214531 | 15 | 291 | 1.6 | 9.7 | 0.00 | 0.00 | 0.00 | 78 | 1005.3 |
| 20260506213101 | 15 | 288 | 3.2 | 19.3 | 0.00 | 0.00 | 0.00 | 77 | 1005.0 |
| 20260506211516 | 16 | 271 | 4.8 | 16.1 | 0.00 | 0.00 | 0.00 | 74 | 1004.8 |
| 20260506210137 | 16 | 263 | 1.6 | 12.9 | 0.00 | 0.00 | 0.00 | 69 | 1004.2 |
| 20260506204550 | 15 | 126 | 0.0 | 8.0 | 0.00 | 0.00 | 0.00 | 72 | 1004.1 |
| 20260506203051 | 16 | 120 | 0.0 | 0.0 | 0.00 | 0.00 | 0.00 | 72 | 1003.7 |
| 20260506201508 | 16 | 122 | 0.0 | 1.6 | 0.00 | 0.00 | 0.00 | 70 | 1003.7 |
| 20260506200027 | 16 | 146 | 0.0 | 1.6 | 0.00 | 0.00 | 0.00 | 69 | 1003.8 |
| 20260506194553 | 17 | 226 | 1.6 | 8.0 | 0.00 | 0.00 | 0.00 | 69 | 1003.7 |
| 20260506193052 | 17 | 129 | 0.0 | 1.6 | 0.00 | 0.00 | 0.00 | 68 | 1003.6 |
| 20260506191603 | 17 | 117 | 0.0 | 3.2 | 0.00 | 0.00 | 0.00 | 66 | 1003.4 |
| 20260506184546 | 18 | 99 | 1.6 | 11.3 | 0.00 | 0.00 | 0.00 | 62 | 1002.9 |
| 20260506183107 | 18 | 68 | 4.8 | 16.1 | 0.00 | 0.00 | 0.00 | 61 | 1002.7 |
| 20260506181558 | 19 | 96 | 4.8 | 11.3 | 0.00 | 0.00 | 0.00 | 60 | 1002.9 |
| 20260506180007 | 20 | 77 | 3.2 | 12.9 | 0.00 | 0.00 | 0.00 | 58 | 1002.8 |
| 20260506174520 | 20 | 101 | 8.0 | 16.1 | 0.00 | 0.00 | 0.00 | 58 | 1002.6 |
| 20260506173040 | 20 | 122 | 4.8 | 16.1 | 0.00 | 0.00 | 0.00 | 56 | 1002.5 |
| 20260506171554 | 21 | 102 | 8.0 | 22.5 | 0.00 | 0.00 | 0.00 | 55 | 1002.7 |